Waarnemingen

Advertentie
Mijn weer
F3, Nederland (6239): temperatuur & dauwpunt: 18.04.2018 10:00:00 - 24.04.2018 10:00:00 (CEST)F3, Nederland (6239): windsnelheid & windstoten: 18.04.2018 10:00:00 - 24.04.2018 10:00:00 (CEST)F3, Nederland (6239): windrichting: 18.04.2018 10:00:00 - 24.04.2018 10:00:00 (CEST)F3, Nederland (6239): luchtdruk: 18.04.2018 10:00:00 - 24.04.2018 10:00:00 (CEST)F3, Nederland (6239): zicht: 18.04.2018 10:00:00 - 24.04.2018 10:00:00 (CEST)
Datum & Tijd tt [°C] td [°C] ff [km/u] ff [kn] fx [km/u] fx [kn] dd ppp [hPa] vv [km]
24.04.2018 10:00:00 8,1 5,6 48 26 50 27 WZW 1008,4 10
24.04.2018 09:00:00 8,2 5,5 48 26 50 27 WZW 1008,2 10
24.04.2018 08:00:00 8,4 5,4 52 28 50 27 W 1007,3 10
24.04.2018 07:00:00 8,3 6,3 54 29 54 29 W 1006,6 10
24.04.2018 06:00:00 8,2 7,0 54 29 54 29 WZW 1006,2 10
24.04.2018 05:00:00 8,6 6,9 55 30 54 29 WZW 1006,3 10
24.04.2018 04:00:00 8,7 6,8 47 25 54 29 WZW 1006,4 19
24.04.2018 03:00:00 8,8 6,7 54 29 54 29 ZW 1006,9 10
24.04.2018 02:00:00 8,3 7,3 46 25 50 27 ZZW 1007,6 10
24.04.2018 01:00:00 8,5 6,5 46 25 47 25 ZZW 1008,4 10
24.04.2018 00:00:00 8,5 6,1 42 23 43 23 ZZW 1009,3 10
23.04.2018 23:00:00 8,1 6,1 39 21 40 21 ZZW 1010,1 10
23.04.2018 22:00:00 8,6 5,5 41 22 40 21 ZW 1010,8 10
23.04.2018 21:00:00 8,2 5,6 39 21 40 21 ZW 1010,8 10
23.04.2018 20:00:00 8,0 5,7 32 18 40 21 ZW 1011,0 23
23.04.2018 19:00:00 8,4 5,9 42 23 40 21 WZW 1011,2 10
23.04.2018 18:00:00 8,2 6,0 36 19 43 23 WZW 1011,3 18
23.04.2018 17:00:00 8,6 5,9 40 21 54 29 WZW 1011,1 17
23.04.2018 16:00:00 8,5 6,1 40 21 47 25 WZW 1011,0 18
23.04.2018 15:00:00 8,2 6,3 40 21 47 25 WZW 1010,9 15
23.04.2018 14:00:00 8,1 6,2 50 27 - - WZW 1010,5 10
23.04.2018 13:00:00 8,1 6,4 40 21 47 25 WZW 1010,1 17
23.04.2018 12:00:00 8,0 6,5 36 19 47 25 WZW 1009,8 17
23.04.2018 11:00:00 8,1 6,4 40 21 47 25 W 1009,2 17
23.04.2018 10:00:00 8,3 6,5 46 25 47 25 WZW 1008,7 10
23.04.2018 09:00:00 8,4 6,5 40 21 43 23 WZW 1008,2 17
23.04.2018 08:00:00 8,3 6,3 32 18 43 23 WZW 1007,7 22
23.04.2018 07:00:00 8,6 6,1 32 18 40 21 WZW 1007,3 25
23.04.2018 06:00:00 8,2 6,8 39 21 40 21 WZW 1007,4 10
23.04.2018 05:00:00 8,6 7,9 32 18 40 21 WZW 1007,5 7
23.04.2018 04:00:00 8,3 7,5 32 18 47 25 W 1007,4 6
23.04.2018 03:00:00 8,6 7,3 29 16 36 19 W 1007,1 15
23.04.2018 02:00:00 9,4 7,6 16 9 18 10 WNW 1006,7 10
23.04.2018 01:00:00 9,2 7,8 14 8 18 10 NNW 1006,4 15
23.04.2018 00:00:00 9,0 8,0 4 2 18 10 - 1006,9 8
22.04.2018 23:00:00 9,6 8,6 9 5 40 21 NNW 1006,8 3,8
22.04.2018 22:00:00 9,4 7,9 22 12 32 18 WZW 1006,8 10
22.04.2018 21:00:00 10,6 8,3 28 15 32 18 ZZW 1006,1 10
22.04.2018 20:00:00 10,2 7,7 32 18 40 21 ZZO 1006,5 18
22.04.2018 19:00:00 10,4 7,6 36 19 43 23 ZZO 1006,6 15
22.04.2018 18:00:00 11,2 7,4 40 21 47 25 ZO 1006,9 18
22.04.2018 17:00:00 10,4 7,1 40 21 47 25 ZO 1007,4 19
22.04.2018 16:00:00 10,0 7,0 44 24 43 23 ZO 1008,3 10
22.04.2018 15:00:00 9,5 6,7 42 23 43 23 OZO 1008,9 10
22.04.2018 14:00:00 9,9 6,4 41 22 40 21 ZO 1010,1 10
22.04.2018 13:00:00 9,7 6,1 44 24 43 23 OZO 1010,4 10
22.04.2018 12:00:00 8,8 6,4 41 22 43 23 OZO 1011,4 10
22.04.2018 11:00:00 8,6 6,5 42 23 43 23 OZO 1012,2 10
22.04.2018 10:00:00 8,6 6,3 46 25 43 23 OZO 1012,7 10
22.04.2018 09:00:00 8,5 6,7 41 22 40 21 OZO 1013,3 10
22.04.2018 08:00:00 8,7 6,7 41 22 40 21 OZO 1014,0 10
22.04.2018 07:00:00 8,7 7,0 32 18 36 19 OZO 1014,5 31
22.04.2018 06:00:00 8,8 6,9 35 19 32 18 ZO 1015,3 10
22.04.2018 05:00:00 8,7 7,1 25 14 32 18 ZO 1016,1 33
22.04.2018 04:00:00 8,5 7,2 25 14 29 16 OZO 1016,6 27
22.04.2018 03:00:00 8,3 7,3 31 17 29 16 OZO 1017,0 10
22.04.2018 02:00:00 8,3 7,5 28 15 25 14 OZO 1018,0 10
22.04.2018 01:00:00 8,2 7,4 28 15 25 14 OZO 1018,5 10
22.04.2018 00:00:00 8,3 7,5 26 14 25 14 ZO 1019,0 10
21.04.2018 23:00:00 8,4 7,4 18 10 18 10 ZO 1019,6 10
21.04.2018 22:00:00 8,4 7,3 15 8 14 8 OZO 1020,3 10
21.04.2018 21:00:00 8,7 7,5 9 5 11 6 OZO 1020,7 10
21.04.2018 20:00:00 8,9 7,3 7 4 7 4 OZO 1020,9 48
21.04.2018 19:00:00 8,9 7,0 4 2 7 4 OZO 1021,2 43
21.04.2018 18:00:00 8,7 6,9 4 2 7 4 ONO 1021,7 40
21.04.2018 17:00:00 8,8 6,9 4 2 7 4 NO 1022,3 31
21.04.2018 16:00:00 8,0 6,8 4 2 11 6 NNW 1022,9 27
21.04.2018 15:00:00 7,8 6,7 11 6 14 8 NNW 1023,5 10
21.04.2018 14:00:00 7,6 6,6 15 8 18 10 NW 1023,5 10
21.04.2018 13:00:00 7,5 6,5 18 10 22 12 WNW 1023,6 10
21.04.2018 12:00:00 7,5 6,3 24 13 22 12 WNW 1023,7 10
21.04.2018 11:00:00 7,6 6,3 26 14 29 16 WNW 1023,6 10
21.04.2018 10:00:00 7,8 6,1 29 16 29 16 WNW 1023,2 10
21.04.2018 09:00:00 8,1 6,0 28 15 25 14 W 1022,9 10
21.04.2018 08:00:00 8,0 6,1 28 15 25 14 W 1022,8 10
21.04.2018 07:00:00 8,2 6,2 25 14 29 16 WNW 1022,7 45
21.04.2018 06:00:00 8,4 6,5 22 12 29 16 WNW 1022,4 42
21.04.2018 05:00:00 8,1 7,0 22 12 25 14 W 1022,4 23
21.04.2018 04:00:00 8,0 7,0 25 14 25 14 W 1022,6 21
21.04.2018 03:00:00 8,1 6,9 22 12 22 12 WNW 1022,5 31
21.04.2018 02:00:00 8,4 6,6 22 12 22 12 NW 1022,6 10
21.04.2018 01:00:00 8,2 6,7 24 13 22 12 NW 1022,7 10
21.04.2018 00:00:00 7,8 7,1 24 13 22 12 NW 1022,6 10
20.04.2018 23:00:00 8,0 7,2 24 13 22 12 NW 1022,6 10
20.04.2018 22:00:00 8,2 7,4 18 10 22 12 NW 1022,5 27
20.04.2018 21:00:00 8,2 7,4 26 14 29 16 NW 1022,0 10
20.04.2018 20:00:00 8,4 7,6 22 12 29 16 NW 1021,4 11
20.04.2018 19:00:00 8,6 7,6 24 13 25 14 WNW 1021,3 5
20.04.2018 18:00:00 9,2 7,7 14 8 22 12 NW 1021,2 7
20.04.2018 17:00:00 9,1 7,5 14 8 22 12 NW 1021,2 6
20.04.2018 16:00:00 8,9 7,1 22 12 25 14 NW 1021,1 5
20.04.2018 15:00:00 9,4 6,9 25 14 29 16 NW 1021,0 7
20.04.2018 14:00:00 9,2 6,8 28 15 32 18 WNW 1021,1 6
20.04.2018 13:00:00 9,2 7,0 29 16 32 18 W 1020,9 6
20.04.2018 12:00:00 10,2 7,2 16 9 18 10 W 1020,5 8
20.04.2018 11:00:00 10,5 7,5 18 10 22 12 W 1020,4 6
20.04.2018 10:00:00 11,3 8,1 15 8 29 16 W 1020,3 5
20.04.2018 09:00:00 10,3 8,4 16 9 18 10 WNW 1020,4 5
20.04.2018 08:00:00 10,3 8,2 18 10 25 14 NW 1020,5 5
20.04.2018 07:00:00 11,9 8,4 18 10 25 14 WNW 1020,3 6
20.04.2018 06:00:00 13,8 8,8 5 3 11 6 WNW 1020,3 8
20.04.2018 05:00:00 13,5 8,9 4 2 7 4 W 1020,8 8
20.04.2018 04:00:00 13,9 9,0 4 2 7 4 - 1021,4 8
20.04.2018 03:00:00 13,2 8,4 4 2 14 8 Z 1021,8 10
20.04.2018 02:00:00 14,2 8,7 14 8 14 8 ZO 1022,5 10
20.04.2018 01:00:00 15,5 9,1 11 6 18 10 ZZO 1023,2 12
20.04.2018 00:00:00 16,1 9,5 11 6 14 8 ZZO 1023,6 13
19.04.2018 23:00:00 16,6 10,0 11 6 14 8 ZZO 1024,1 14
19.04.2018 22:00:00 14,0 9,8 9 5 14 8 Z 1024,5 9
19.04.2018 21:00:00 12,0 8,7 11 6 18 10 ZZO 1024,6 10
19.04.2018 20:00:00 13,2 9,0 14 8 22 12 ZO 1024,8 10
19.04.2018 19:00:00 14,3 9,7 18 10 22 12 ZZO 1025,1 10
19.04.2018 18:00:00 13,0 8,8 26 14 25 14 Z 1025,7 10
19.04.2018 17:00:00 14,4 9,2 29 16 29 16 Z 1025,7 10
19.04.2018 16:00:00 13,0 8,5 35 19 32 18 Z 1026,3 10
19.04.2018 15:00:00 11,9 8,0 35 19 32 18 Z 1026,6 10
19.04.2018 14:00:00 10,8 7,5 37 20 36 19 Z 1026,8 10
19.04.2018 13:00:00 11,8 7,7 44 24 40 21 Z 1026,6 10
19.04.2018 12:00:00 10,5 7,2 41 22 61 33 ZZO 1026,8 10
19.04.2018 11:00:00 10,7 7,5 41 22 40 21 ZZO 1026,8 10
19.04.2018 10:00:00 10,4 7,2 44 24 40 21 ZZO 1026,8 10
19.04.2018 09:00:00 10,1 6,8 39 21 40 21 ZO 1027,0 10
19.04.2018 08:00:00 10,9 7,1 41 22 - - ZO 1027,0 10
19.04.2018 07:00:00 10,9 7,5 32 18 36 19 ZZO 1027,1 14
19.04.2018 06:00:00 11,7 7,6 42 23 40 21 ZO 1027,3 10
19.04.2018 05:00:00 12,2 7,6 40 21 43 23 ZO 1027,7 22
19.04.2018 04:00:00 11,8 7,6 32 18 36 19 ZO 1028,3 22
19.04.2018 03:00:00 12,1 8,1 35 19 40 21 ZO 1028,7 10
19.04.2018 02:00:00 9,4 7,6 41 22 40 21 ZO 1028,9 8
19.04.2018 01:00:00 9,3 7,4 24 13 29 16 ZO 1029,3 10
19.04.2018 00:00:00 12,3 8,7 24 13 25 14 ZZO 1029,5 10
18.04.2018 23:00:00 11,8 8,6 24 13 25 14 Z 1029,5 10
18.04.2018 22:00:00 10,3 7,6 16 9 18 10 Z 1030,1 10
18.04.2018 21:00:00 11,0 8,0 22 12 22 12 ZZW 1029,8 10
18.04.2018 20:00:00 11,0 7,6 22 12 22 12 ZW 1029,7 10
18.04.2018 19:00:00 10,5 7,3 26 14 25 14 ZZW 1029,8 10
18.04.2018 18:00:00 10,1 7,0 26 14 43 23 ZZW 1029,8 10
18.04.2018 17:00:00 10,5 7,0 22 12 36 19 Z 1030,0 10
18.04.2018 16:00:00 9,5 6,7 29 16 29 16 ZZW 1029,7 10
18.04.2018 15:00:00 9,5 6,8 31 17 32 18 ZZW 1029,7 10
18.04.2018 14:00:00 9,5 6,8 37 20 36 19 ZZW 1029,6 10
18.04.2018 13:00:00 9,3 6,5 39 21 - - ZZW 1029,1 10
18.04.2018 12:00:00 - - - - - - - - -
18.04.2018 11:00:00 8,8 6,4 28 15 40 21 ZZW 1029,0 10
18.04.2018 10:00:00 9,7 6,8 34 18 32 18 Z 1028,4 10

tt = temperatuur
td = dauwpunt
ff = windsnelheid
fx = windstoten
dd = windrichting
ppp = luchtdruk
vv = zicht

Weerstations in de omgeving